Terug naar catalogus

CZ-4 DEB

ActiefSSO
NORAD 27678·DEBRIS·🇨🇳 China

Gelanceerd Oct 14, 1999 vanaf Taiyuan Satellite Launch Center

Loading…

Volgende Passages (komende 24 uur)

TLE

VersSource: Space-Track

Epoch: Sep 14, 2026, 08:56 UTC

1 27678U 99057MS  26257.37232936  .00000106  00000-0  51221-4 0  9999
2 27678  98.8288 299.4395 0107712 118.3383 307.9219 14.33941543269893

Volg CZ-4 DEB in realtime met AllMySat

Download on the App Store